SCP
0 0 0 0 0 0 0 0 0 0 0 0 0 -0 0 0 -0 0 0 0 0 0 0 0 0 0 0 0 0 0 0 0
0 0 0 0 0 0 0 0 0 -0 0 0 0 0 0 -0 -0 0 0 -0 -0 0 -0 0 0 0 0 0 0 0 0 0
0 0 0 0 0 0 0 0 0 0 0 -0 0 0 0 0 -0 0 -0 -0 -0 -0 0 0 0 0 0 0 0 0 0 0
0 0 0 0 0 0 0 0 0 0 0 0 0 0 0 0 -0 -0 0 0 -0 0 0 0 0 0 0 0 0 0 0 0
0 0 0 0 0 0 0 0 0 0 0 0 0 0 -0 -0 -0 0 0 0 -0 -0 0 0 0 0 0 0 0 0 0 0
0 0 0 0 0 0 0 0 0 0 0 0 0 -0 -0 -0 -0 -0 0 -0 0 -0 -0 0 0 0 0 0 0 0 0 0
0 0 0 0 0 0 0 -0 0 0 0 0 0 0 -0 -0 -0 -0 -0 0 0 0 0 0 0 0 0 0 0 0 0 0
0 0 0 0 0 0 0 0 0 0 0 -0 0 0 0 -0 0 0 -0 -0 -0 0 0 0 0 0 0 0 0 0 -0 -0
0 0 0 0 0 0 0 0 -0 0 0 -0 0 0 0 -0 -0 -0 0 -0 -0 -0 -0 0 0 0 0 0 0 -0 -0 -0
0 0 0 0 0 0 0 0 0 -0 -0 0 0 0 0 0 0 -0 0 0 0 0 -0 -0 0 0 0 -0 -1 -1 -1 -0
0 0 0 0 0 0 0 0 0 0 0 0 0 0 0 0 0 0 0 0 0 -0 -0 -0 -0 -0 -0 -0 -1 -1 -1 -1
0 0 0 0 0 0 0 0 0 0 0 0 0 0 0 0 0 0 0 0 0 0 0 0 0 0 -0 -0 -1 -1 -1 -0
0 0 0 0 0 0 0 0 0 0 0 0 0 0 0 0 0 -0 0 0 0 0 0 0 0 0 0 -0 -0 -1 -0 -0
0 0 0 0 0 0 0 0 0 0 0 0 0 0 0 0 0 0 0 0 0 0 0 1 0 0 0 0 1 0 0 0
0 0 0 0 0 0 0 0 0 0 0 0 0 0 0 0 0 0 0 0 0 0 0 0 0 0 1 1 1 1 0 0
0 0 0 0 0 0 0 0 0 0 0 0 0 0 0 0 0 0 0 1 1 0 1 1 0 0 1 2 1 0 0 0
0 0 0 0 0 0 0 0 0 -0 0 0 0 0 0 0 0 0 1 2 1 2 2 1 1 2 1 1 1 1 0 0
0 0 0 0 0 0 -0 0 0 0 -0 0 0 0 0 0 0 0 1 2 2 2 2 2 2 1 1 1 1 1 1 0
0 0 0 0 0 0 0 -0 -0 0 0 0 0 0 0 0 0 0 1 2 2 2 2 1 1 1 0 1 1 1 1 0
Wind_Speed_500mb
21 25 35 26 25 27 7 3 7 7 11 27 2 0 28 36 51 58 60 56 55 55 58 60 62 65 66 65 63 64 63 62
38 20 31 27 35 19 10 14 14 9 12 18 19 3 22 33 50 54 54 53 52 55 59 58 59 60 63 65 65 63 62 61
31 33 35 19 27 12 24 9 17 10 15 11 20 8 31 36 49 53 54 54 55 56 57 57 57 60 62 64 66 67 64 59
34 45 30 42 34 37 23 14 4 6 12 4 13 5 38 42 46 47 54 58 60 60 60 61 60 60 62 63 65 62 59 58
15 12 21 37 35 41 29 16 22 24 11 2 6 3 34 44 42 42 46 53 57 62 66 66 64 63 63 65 64 60 60 59
28 40 36 46 40 35 41 24 24 31 31 28 16 6 23 39 40 42 54 58 62 68 73 71 69 67 67 67 66 67 67 65
42 4 34 37 50 41 45 41 37 35 29 33 23 12 27 42 41 42 49 57 69 73 75 75 74 73 73 73 75 73 70 68
39 42 21 36 36 55 49 45 34 32 35 32 28 20 16 25 42 55 69 76 79 80 76 76 77 79 81 83 83 79 74 68
32 35 40 46 46 32 44 52 50 44 45 21 17 20 33 44 44 62 77 84 91 91 90 85 83 85 88 87 87 81 75 70
7 23 45 33 39 43 29 34 44 43 31 36 36 42 42 48 52 66 71 78 80 95 101 93 89 91 91 87 84 81 81 77
9 28 15 24 15 43 37 43 35 39 34 27 30 15 32 47 51 51 52 53 54 78 95 101 99 92 93 94 93 90 88 83
7 16 29 26 27 22 35 40 37 43 36 28 18 17 21 41 42 37 42 48 49 58 78 92 103 105 103 102 99 98 91 84
26 10 14 18 31 31 35 13 43 55 55 49 25 28 49 39 31 35 42 37 41 48 61 63 71 88 94 96 98 90 77 69
16 17 23 13 5 26 13 30 26 56 63 55 68 65 58 61 41 39 48 51 48 48 50 53 51 58 68 74 73 74 67 63
17 12 12 29 31 37 34 29 45 49 61 79 77 71 55 52 53 58 55 55 53 53 53 50 52 55 56 60 57 55 54 54
8 7 28 63 33 16 37 36 47 44 51 71 62 56 43 39 57 59 56 52 46 48 50 50 54 57 59 58 53 51 51 50
9 17 52 4 35 47 54 51 49 51 49 50 55 49 39 37 49 66 58 59 50 50 58 60 63 66 65 57 52 55 50 50
7 27 29 43 51 54 55 57 53 45 50 60 59 47 47 43 34 56 65 61 56 53 59 62 67 66 59 54 54 55 54 56
14 51 43 43 43 50 58 52 44 44 51 55 64 54 49 39 32 35 53 54 54 51 59 61 57 61 58 57 57 59 58 60
Wind_Direction_500mb
191 192 179 180 209 200 174 79 238 204 262 278 258 213 183 175 176 184 187 191 199 204 208 209 210 211 212 214 214 217 221 226
198 192 209 194 175 184 215 211 231 219 270 254 274 209 185 166 178 184 185 187 198 203 207 209 210 211 213 216 216 218 222 227
201 205 180 175 190 217 190 231 219 242 244 227 273 191 197 179 182 180 183 189 198 203 205 207 209 211 213 215 216 219 222 227
199 201 210 197 195 193 195 181 234 276 263 358 292 242 193 184 185 186 187 191 199 202 204 206 210 212 213 216 219 219 224 228
182 192 199 209 200 200 201 176 195 212 234 356 23 184 193 180 188 188 188 192 200 203 206 209 210 214 216 218 220 224 227 230
209 210 189 205 196 205 198 200 192 217 234 249 299 279 199 185 191 190 196 200 204 208 210 211 212 215 218 220 223 227 231 234
229 237 203 203 208 202 210 213 211 213 228 245 251 244 223 198 186 190 199 204 207 211 212 214 215 216 219 221 227 230 234 237
232 227 224 220 214 213 211 215 223 227 229 233 234 222 222 225 196 200 208 214 211 211 212 214 215 216 218 221 226 231 235 238
225 213 235 244 228 222 222 216 216 218 226 195 207 204 221 230 210 212 217 219 216 213 212 212 214 217 222 224 229 232 236 239
239 185 220 247 230 226 227 227 223 232 228 222 228 228 234 226 221 219 225 228 232 222 216 215 217 220 226 230 235 237 240 241
235 212 235 222 208 210 206 231 222 231 223 217 222 222 247 239 237 239 249 252 251 226 218 216 219 223 227 230 234 238 242 244
193 226 231 221 212 201 200 237 219 222 236 238 199 221 240 239 232 251 262 257 254 233 224 218 219 222 227 231 234 238 240 242
228 261 277 252 218 175 195 255 210 213 221 227 208 221 243 254 253 271 262 255 257 236 226 227 220 225 231 235 239 241 241 240
207 212 238 248 169 215 246 249 232 212 213 216 226 240 251 261 258 261 253 255 255 231 213 218 223 224 227 233 238 239 236 233
212 208 301 310 305 304 322 278 236 233 222 218 227 237 239 250 257 255 247 253 250 221 214 214 220 223 228 228 226 222 219 218
295 79 326 302 298 306 333 311 275 265 249 220 214 211 223 249 247 240 240 242 224 212 211 219 221 222 221 222 213 205 202 202
274 337 331 126 340 334 321 311 296 278 255 230 219 223 234 251 256 235 233 230 229 223 221 221 219 215 215 208 201 192 191 190
355 334 312 286 313 317 322 311 294 285 259 245 237 237 247 248 271 239 229 228 227 221 217 215 215 211 203 195 193 189 184 184
315 325 309 310 324 329 322 313 292 269 257 245 239 240 239 241 257 246 223 225 224 223 214 213 209 204 194 188 187 189 189 186
Wind_Speed_850mb
21 25 35 26 25 27 7 3 7 7 11 27 2 0 28 36 51 58 60 56 55 55 58 60 62 65 66 65 63 64 63 62
38 20 31 27 35 19 10 14 14 9 12 18 19 3 22 33 50 54 54 53 52 55 59 58 59 60 63 65 65 63 62 61
31 33 35 19 27 12 24 9 17 10 15 11 20 8 31 36 49 53 54 54 55 56 57 57 57 60 62 64 66 67 64 59
34 45 30 42 34 37 23 14 4 6 12 4 13 5 38 42 46 47 54 58 60 60 60 61 60 60 62 63 65 62 59 58
15 12 21 37 35 41 29 16 22 24 11 2 6 3 34 44 42 42 46 53 57 62 66 66 64 63 63 65 64 60 60 59
28 40 36 46 40 35 41 24 24 31 31 28 16 6 23 39 40 42 54 58 62 68 73 71 69 67 67 67 66 67 67 65
42 4 34 37 50 41 45 41 37 35 29 33 23 12 27 42 41 42 49 57 69 73 75 75 74 73 73 73 75 73 70 68
39 42 21 36 36 55 49 45 34 32 35 32 28 20 16 25 42 55 69 76 79 80 76 76 77 79 81 83 83 79 74 68
32 35 40 46 46 32 44 52 50 44 45 21 17 20 33 44 44 62 77 84 91 91 90 85 83 85 88 87 87 81 75 70
7 23 45 33 39 43 29 34 44 43 31 36 36 42 42 48 52 66 71 78 80 95 101 93 89 91 91 87 84 81 81 77
9 28 15 24 15 43 37 43 35 39 34 27 30 15 32 47 51 51 52 53 54 78 95 101 99 92 93 94 93 90 88 83
7 16 29 26 27 22 35 40 37 43 36 28 18 17 21 41 42 37 42 48 49 58 78 92 103 105 103 102 99 98 91 84
26 10 14 18 31 31 35 13 43 55 55 49 25 28 49 39 31 35 42 37 41 48 61 63 71 88 94 96 98 90 77 69
16 17 23 13 5 26 13 30 26 56 63 55 68 65 58 61 41 39 48 51 48 48 50 53 51 58 68 74 73 74 67 63
17 12 12 29 31 37 34 29 45 49 61 79 77 71 55 52 53 58 55 55 53 53 53 50 52 55 56 60 57 55 54 54
8 7 28 63 33 16 37 36 47 44 51 71 62 56 43 39 57 59 56 52 46 48 50 50 54 57 59 58 53 51 51 50
9 17 52 4 35 47 54 51 49 51 49 50 55 49 39 37 49 66 58 59 50 50 58 60 63 66 65 57 52 55 50 50
7 27 29 43 51 54 55 57 53 45 50 60 59 47 47 43 34 56 65 61 56 53 59 62 67 66 59 54 54 55 54 56
14 51 43 43 43 50 58 52 44 44 51 55 64 54 49 39 32 35 53 54 54 51 59 61 57 61 58 57 57 59 58 60
Wind_Direction_850mb
191 192 179 180 209 200 174 79 238 204 262 278 258 213 183 175 176 184 187 191 199 204 208 209 210 211 212 214 214 217 221 226
198 192 209 194 175 184 215 211 231 219 270 254 274 209 185 166 178 184 185 187 198 203 207 209 210 211 213 216 216 218 222 227
201 205 180 175 190 217 190 231 219 242 244 227 273 191 197 179 182 180 183 189 198 203 205 207 209 211 213 215 216 219 222 227
199 201 210 197 195 193 195 181 234 276 263 358 292 242 193 184 185 186 187 191 199 202 204 206 210 212 213 216 219 219 224 228
182 192 199 209 200 200 201 176 195 212 234 356 23 184 193 180 188 188 188 192 200 203 206 209 210 214 216 218 220 224 227 230
209 210 189 205 196 205 198 200 192 217 234 249 299 279 199 185 191 190 196 200 204 208 210 211 212 215 218 220 223 227 231 234
229 237 203 203 208 202 210 213 211 213 228 245 251 244 223 198 186 190 199 204 207 211 212 214 215 216 219 221 227 230 234 237
232 227 224 220 214 213 211 215 223 227 229 233 234 222 222 225 196 200 208 214 211 211 212 214 215 216 218 221 226 231 235 238
225 213 235 244 228 222 222 216 216 218 226 195 207 204 221 230 210 212 217 219 216 213 212 212 214 217 222 224 229 232 236 239
239 185 220 247 230 226 227 227 223 232 228 222 228 228 234 226 221 219 225 228 232 222 216 215 217 220 226 230 235 237 240 241
235 212 235 222 208 210 206 231 222 231 223 217 222 222 247 239 237 239 249 252 251 226 218 216 219 223 227 230 234 238 242 244
193 226 231 221 212 201 200 237 219 222 236 238 199 221 240 239 232 251 262 257 254 233 224 218 219 222 227 231 234 238 240 242
228 261 277 252 218 175 195 255 210 213 221 227 208 221 243 254 253 271 262 255 257 236 226 227 220 225 231 235 239 241 241 240
207 212 238 248 169 215 246 249 232 212 213 216 226 240 251 261 258 261 253 255 255 231 213 218 223 224 227 233 238 239 236 233
212 208 301 310 305 304 322 278 236 233 222 218 227 237 239 250 257 255 247 253 250 221 214 214 220 223 228 228 226 222 219 218
295 79 326 302 298 306 333 311 275 265 249 220 214 211 223 249 247 240 240 242 224 212 211 219 221 222 221 222 213 205 202 202
274 337 331 126 340 334 321 311 296 278 255 230 219 223 234 251 256 235 233 230 229 223 221 221 219 215 215 208 201 192 191 190
355 334 312 286 313 317 322 311 294 285 259 245 237 237 247 248 271 239 229 228 227 221 217 215 215 211 203 195 193 189 184 184
315 325 309 310 324 329 322 313 292 269 257 245 239 240 239 241 257 246 223 225 224 223 214 213 209 204 194 188 187 189 189 186